Weather History for KVOK - May, 2013

Change the Weather History Date:

Sunday, May 5, 2013

  Actual Average Record
Temperature  
Mean Temperature 57 °F -  
Max Temperature 74 °F 63 °F 82 °F (2000)
Min Temperature 39 °F 47 °F 33 °F (2004)
Degree Days  
Heating Degree Days 8    
Growing Degree Days 7 (Base 50)    
Moisture  
Dew Point 43 °F    
Average Humidity 80    
Maximum Humidity 100    
Minimum Humidity 27    
Precipitation  
Precipitation 0.00 in - - ()
Sea Level Pressure  
Sea Level Pressure 30.07 in    
Wind  
Wind Speed 5 mph (NW)    
Max Wind Speed 8 mph    
Max Gust Speed -    
Visibility 7 miles    
Events      
Averages and records for this station are not official NWS values.
T = Trace of Precipitation, MM = Missing Value Source: NWS Daily Summary

Daily Weather History Graph

Daily Weather History Graph

Search for Another Location

Airport or City:

Trip Planner

Search our weather history database for the weather conditions in past years. The results will help you decide how hot, cold, wet, or windy it might be!

Date:

Astronomy

May. 05, 2013 Rise Set
Actual Time 5:46 AM CDT 8:09 PM CDT
Civil Twilight 5:14 AM CDT 8:41 PM CDT
Nautical Twilight 4:34 AM CDT 9:21 PM CDT
Astronomical Twilight 3:50 AM CDT 10:06 PM CDT
Moon 3:26 AM CDT (5/5) 4:01 PM CDT (5/5)
Length of Visible Light 15h 26m
Length of Day
14h 22m
Waning Crescent, 18% of the Moon is Illuminated
May 5
Waning Crescent
May 9
New
May 17
First Quarter
May 24
Full
May 31
Last Quarter

Hourly Weather History & Observations

Time (CDT) Temp. Windchill Dew Point Humidity Pressure Visibility Wind Dir Wind Speed Gust Speed Precip Events Conditions
12:58 AM 49.8 °F - 47.3 °F 91% 30.09 in 10.0 mi West 6.9 mph - N/A   Overcast
1:58 AM 47.1 °F - 45.7 °F 95% 30.08 in 10.0 mi WNW 5.8 mph - N/A   Partly Cloudy
2:58 AM 45.5 °F 41.8 °F 44.6 °F 97% 30.07 in 10.0 mi West 6.9 mph - N/A   Scattered Clouds
3:58 AM 43.0 °F 40.3 °F 42.6 °F 99% 30.09 in 10.0 mi West 4.6 mph - N/A   Partly Cloudy
4:33 AM 42.8 °F 40.1 °F 42.8 °F 100% 30.07 in 7.0 mi WNW 4.6 mph - N/A   Clear
4:43 AM 41.0 °F 39.0 °F 41.0 °F 100% 30.07 in 3.0 mi West 3.5 mph - N/A   Clear
4:48 AM 41.0 °F 38.0 °F 41.0 °F 100% 30.07 in 1.5 mi West 4.6 mph - N/A   Clear
4:53 AM 41.0 °F 37.1 °F 41.0 °F 100% 30.07 in 1.8 mi WNW 5.8 mph - N/A   Clear
4:58 AM 41.0 °F 38.0 °F 41.0 °F 100% 30.09 in 2.0 mi WNW 4.6 mph - N/A   Clear
5:03 AM 39.2 °F 37.0 °F 39.2 °F 100% 30.07 in 1.0 mi WNW 3.5 mph - N/A   Clear
5:08 AM 39.2 °F 35.9 °F 39.2 °F 100% 30.07 in 0.8 mi West 4.6 mph - N/A   Clear
5:18 AM 41.0 °F 38.0 °F 41.0 °F 100% 30.07 in 2.5 mi West 4.6 mph - N/A   Clear
5:23 AM 41.0 °F 38.0 °F 41.0 °F 100% 30.07 in 8.0 mi West 4.6 mph - N/A   Clear
5:28 AM 41.0 °F 37.1 °F 41.0 °F 100% 30.07 in 10.0 mi West 5.8 mph - N/A   Clear
5:53 AM 39.2 °F 35.9 °F 39.2 °F 100% 30.08 in 1.2 mi West 4.6 mph - N/A   Clear
5:58 AM 39.4 °F 36.1 °F 39.0 °F 99% 30.10 in 0.8 mi West 4.6 mph - N/A   Clear
6:03 AM 41.0 °F 37.1 °F 39.2 °F 93% 30.08 in 1.2 mi West 5.8 mph - N/A   Partly Cloudy
6:08 AM 41.0 °F 38.0 °F 41.0 °F 100% 30.08 in 9.0 mi WNW 4.6 mph - N/A   Scattered Clouds
6:58 AM 43.9 °F 42.3 °F 43.9 °F 100% 30.11 in 10.0 mi West 3.5 mph - N/A   Partly Cloudy
7:58 AM 48.2 °F - 46.4 °F 93% 30.11 in 10.0 mi NW 2.3 mph - N/A   Clear
8:58 AM 51.8 °F - 46.4 °F 82% 30.11 in 10.0 mi North 3.5 mph - N/A   Overcast
9:58 AM 55.4 °F - 46.4 °F 72% 30.11 in 10.0 mi North 4.6 mph - N/A   Overcast
10:58 AM 59.0 °F - 44.6 °F 59% 30.11 in 10.0 mi Variable 5.8 mph - N/A   Mostly Cloudy
11:58 AM 64.4 °F - 46.4 °F 52% 30.09 in 10.0 mi North 5.8 mph - N/A   Mostly Cloudy
12:58 PM 68.0 °F - 46.4 °F 46% 30.07 in 10.0 mi Variable 5.8 mph - N/A   Mostly Cloudy
1:58 PM 71.6 °F - 46.4 °F 41% 30.05 in 10.0 mi North 5.8 mph - N/A   Overcast
2:58 PM 75.2 °F - 39.2 °F 27% 30.03 in 10.0 mi NE 8.1 mph - N/A   Overcast
3:58 PM 73.4 °F - 42.8 °F 33% 30.02 in 10.0 mi East 8.1 mph - N/A   Overcast
4:58 PM 71.6 °F - 44.6 °F 38% 30.02 in 10.0 mi East 3.5 mph - N/A   Overcast
5:58 PM 71.6 °F - 41.5 °F 34% 30.03 in 10.0 mi NNE 2.3 mph - N/A   Clear
6:58 PM 69.3 °F - 44.1 °F 40% 30.02 in 8.0 mi NNE 5.8 mph - N/A   Scattered Clouds
7:58 PM 65.5 °F - 44.2 °F 46% 30.04 in 6.0 mi NE 4.6 mph - N/A   Haze
8:58 PM 56.1 °F - 46.8 °F 71% 30.05 in 10.0 mi East 3.5 mph - N/A   Partly Cloudy
9:58 PM 56.8 °F - 45.9 °F 67% 30.07 in 10.0 mi Calm Calm - N/A   Clear
10:58 PM 48.2 °F - 45.3 °F 90% 30.07 in 10.0 mi East 1.2 mph - N/A   Clear
11:48 PM 44.6 °F - 42.8 °F 93% 30.05 in 4.0 mi Calm Calm - N/A   Clear
11:53 PM 42.8 °F - 42.8 °F 100% 30.05 in 3.0 mi Calm Calm - N/A   Clear
11:58 PM 43.3 °F - 43.0 °F 99% 30.07 in 7.0 mi Calm Calm - N/A   Clear